TimeEDT,TemperatureF,Dew PointF,Humidity,Sea Level PressureIn,VisibilityMPH,Wind Direction,Wind SpeedMPH,Gust SpeedMPH,PrecipitationIn,Events,Conditions,WindDirDegrees,DateUTC
12:52 AM,64.9,53.1,65,29.94,10.0,SE,11.5,-,N/A,,Overcast,130,2011-10-12 04:52:00
2:52 AM,62.1,54.0,75,29.92,10.0,ESE,9.2,-,N/A,,Overcast,110,2011-10-12 06:52:00
3:52 AM,60.1,54.0,80,29.91,10.0,ESE,4.6,-,N/A,,Overcast,110,2011-10-12 07:52:00
4:52 AM,59.0,54.0,83,29.91,10.0,SE,9.2,-,N/A,,Overcast,130,2011-10-12 08:52:00
5:52 AM,59.0,54.0,83,29.91,10.0,SSE,3.5,-,N/A,,Overcast,150,2011-10-12 09:52:00
6:16 AM,59.0,55.4,88,29.93,10.0,ESE,3.5,-,N/A,,Overcast,110,2011-10-12 10:16:00
6:52 AM,59.0,55.0,87,29.91,10.0,ESE,3.5,-,N/A,,Overcast,110,2011-10-12 10:52:00
7:31 AM,59.0,55.4,88,29.92,10.0,East,10.4,-,N/A,,Overcast,90,2011-10-12 11:31:00
7:52 AM,57.9,55.0,90,29.90,8.0,ESE,6.9,-,N/A,,Overcast,120,2011-10-12 11:52:00
8:52 AM,57.9,55.0,90,29.91,7.0,ESE,5.8,-,0.00,,Drizzle,110,2011-10-12 12:52:00
9:52 AM,57.2,55.4,94,29.91,8.0,SE,5.8,-,N/A,,Overcast,130,2011-10-12 13:52:00
10:52 AM,59.0,55.0,87,29.88,7.0,East,4.6,-,N/A,,Overcast,100,2011-10-12 14:52:00
11:52 AM,61.0,55.0,81,29.87,10.0,East,4.6,-,N/A,,Overcast,90,2011-10-12 15:52:00
12:12 PM,60.8,55.4,82,29.88,10.0,East,4.6,-,N/A,,Overcast,90,2011-10-12 16:12:00
1:52 PM,63.0,55.0,75,29.84,10.0,Calm,Calm,-,N/A,,Overcast,0,2011-10-12 17:52:00
2:52 PM,62.1,55.0,78,29.82,10.0,SE,3.5,-,N/A,,Overcast,140,2011-10-12 18:52:00
3:25 PM,62.6,55.4,77,29.82,10.0,Calm,Calm,-,N/A,,Overcast,0,2011-10-12 19:25:00
3:52 PM,64.0,55.0,73,29.79,10.0,ESE,4.6,-,N/A,,Overcast,110,2011-10-12 19:52:00
4:52 PM,64.0,55.0,73,29.78,10.0,East,4.6,-,N/A,,Overcast,90,2011-10-12 20:52:00
5:52 PM,63.0,55.0,75,29.77,10.0,SSE,4.6,-,N/A,,Overcast,150,2011-10-12 21:52:00
6:52 PM,63.0,55.0,75,29.77,10.0,SE,4.6,-,N/A,,Overcast,130,2011-10-12 22:52:00
7:52 PM,63.0,55.0,75,29.77,10.0,SE,6.9,-,N/A,,Overcast,130,2011-10-12 23:52:00
8:52 PM,59.0,54.0,83,29.76,10.0,SE,3.5,-,N/A,,Overcast,140,2011-10-13 00:52:00
9:52 PM,59.0,53.6,82,29.77,10.0,SSE,3.5,-,N/A,,Mostly Cloudy,150,2011-10-13 01:52:00
10:52 PM,57.2,53.6,88,29.77,10.0,SSE,5.8,-,N/A,,Partly Cloudy,160,2011-10-13 02:52:00
11:52 PM,60.1,55.0,83,29.74,10.0,SSE,8.1,-,N/A,,Mostly Cloudy,160,2011-10-13 03:52:00